This is the latest recevied weather packets stored in our database for station/object K0SDS. If no packets are shown the sender has not sent any weather packets the latest 10 day(s).
| Time | Temp. | Humidity | Pressure | Rain* | Wind** | Luminosity | Snow |
|---|---|---|---|---|---|---|---|
| 1778079285 | 12.78° C | 55% | 1018.9 hPa | 0 mm | - | 528 W/m² | - |
| 1778078983 | 12.78° C | 57% | 1018.9 hPa | 0 mm | - | 496 W/m² | - |
| 1778078679 | 12.78° C | 61% | 1019 hPa | 0 mm | - | 459 W/m² | - |
| 1778078377 | 12.22° C | 56% | 1019 hPa | 0 mm | - | 411 W/m² | - |
| 1778078074 | 12.22° C | 59% | 1018.9 hPa | 0 mm | - | 409 W/m² | - |
| 1778077772 | 11.67° C | 59% | 1018.8 hPa | 0 mm | - | 379 W/m² | - |
| 1778077470 | 11.67° C | 64% | 1018.9 hPa | 0 mm | - | 319 W/m² | - |
| 1778077168 | 11.67° C | 60% | 1018.9 hPa | 0 mm | - | 289 W/m² | - |
| 1778076865 | 11.67° C | 64% | 1018.8 hPa | 0 mm | - | 259 W/m² | - |
| 1778076564 | 11.11° C | 62% | 1018.9 hPa | 0 mm | - | 242 W/m² | - |
| 1778076260 | 10.56° C | 64% | 1018.8 hPa | 0 mm | - | 254 W/m² | - |
| 1778075957 | 10.56° C | 64% | 1018.7 hPa | 0 mm | - | 211 W/m² | - |
| 1778075655 | 10.56° C | 64% | 1018.6 hPa | 0 mm | - | 212 W/m² | - |
| 1778075350 | 10° C | 66% | 1018.7 hPa | 0 mm | - | 161 W/m² | - |
| 1778075047 | 10° C | 70% | 1018.5 hPa | 0 mm | - | 135 W/m² | - |
| 1778074744 | 10° C | 70% | 1018.3 hPa | 0 mm | - | 118 W/m² | - |
| 1778074440 | 9.44° C | 69% | 1018.5 hPa | 0 mm | - | 121 W/m² | - |
| 1778074137 | 9.44° C | 71% | 1018.3 hPa | 0 mm | - | 109 W/m² | - |
| 1778073834 | 9.44° C | 71% | 1018.3 hPa | 0 mm | - | 86 W/m² | - |
| 1778073532 | 9.44° C | 72% | 1018.3 hPa | 0 mm | - | 76 W/m² | - |
| 1778073228 | 9.44° C | 73% | 1018.1 hPa | 0 mm | - | 78 W/m² | - |
| 1778072926 | 9.44° C | 74% | 1018.1 hPa | 0 mm | - | 82 W/m² | - |
| 1778072622 | 9.44° C | 74% | 1017.9 hPa | 0 mm | - | 84 W/m² | - |
| 1778072320 | 8.89° C | 76% | 1017.8 hPa | 0 mm | - | 95 W/m² | - |
| 1778072018 | 8.89° C | 81% | 1017.8 hPa | 0 mm | - | 81 W/m² | - |
* Rain latest hour (hover to see other rain measurements)
** Current wind speed in m/s (hover to see current wind gust speed)